Weather History for Poplar Bluff, MO

Change the Weather History Date:

Thursday, October 3, 2013

  Actual Average Record
Temperature  
Mean Temperature 74 °F -  
Max Temperature 84 °F 77 °F 96 °F (1953)
Min Temperature 64 °F 49 °F 32 °F (1952)
Cooling Degree Days 9    
Growing Degree Days 24 (Base 50)    
Moisture  
Dew Point 69 °F    
Average Humidity 83    
Maximum Humidity 94    
Minimum Humidity 62    
Precipitation  
Precipitation 0.95 in - - ()
Sea Level Pressure  
Sea Level Pressure 29.97 in    
Wind  
Wind Speed 3 mph (South)    
Max Wind Speed 14 mph    
Max Gust Speed 24 mph    
Visibility 6 miles    
Events Fog , Rain , Thunderstorm    
Averages and records for this station are not official NWS values.
T = Trace of Precipitation, MM = Missing Value Source: NWS Daily Summary

Daily Weather History Graph

Daily Weather History Graph

Search for Another Location

Airport:

Trip Planner

Search our weather history database for the weather conditions in past years. The results will help you decide how hot, cold, wet, or windy it might be!

Date:

Astronomy

Oct. 03, 2013 Rise Set
Actual Time 6:58 AM CDT 6:41 PM CDT
Civil Twilight 6:32 AM CDT 7:07 PM CDT
Nautical Twilight 6:02 AM CDT 7:37 PM CDT
Astronomical Twilight 5:32 AM CDT 8:07 PM CDT
Moon 5:33 AM CDT (10/3) 5:49 PM CDT (10/3)
Length of Visible Light 12h 34m
Length of Day
11h 42m
Waning Crescent, 2% of the Moon is Illuminated
Oct 3
Waning Crescent
Oct 4
New
Oct 11
First Quarter
Oct 18
Full
Oct 26
Last Quarter

Hourly Weather History & Observations

Time (CDT) Temp. Heat Index Dew Point Humidity Pressure Visibility Wind Dir Wind Speed Gust Speed Precip Events Conditions
12:53 AM 69.1 °F - 66.0 °F 90% 30.00 in 9.0 mi Calm Calm - N/A   Partly Cloudy
1:43 AM 68.0 °F - 64.4 °F 88% 30.01 in 2.0 mi Calm Calm - N/A   Scattered Clouds
1:53 AM 66.9 °F - 64.0 °F 90% 29.99 in 4.0 mi Calm Calm - N/A   Partly Cloudy
1:58 AM 66.2 °F - 64.4 °F 94% 30.01 in 1.5 mi Calm Calm - N/A   Partly Cloudy
2:06 AM 66.2 °F - 64.4 °F 94% 30.01 in 0.5 mi Calm Calm - N/A Fog Fog
2:19 AM 66.2 °F - 64.4 °F 94% 30.01 in 0.5 mi Calm Calm - N/A Fog Fog
2:29 AM 66.2 °F - 64.4 °F 94% 30.00 in 0.5 mi Calm Calm - N/A Fog Fog
2:53 AM 64.9 °F - 63.0 °F 93% 29.99 in 1.5 mi Calm Calm - N/A   Mostly Cloudy
2:56 AM 66.2 °F - 62.6 °F 88% 30.00 in 3.0 mi Calm Calm - N/A   Mostly Cloudy
3:53 AM 66.9 °F - 64.0 °F 90% 29.99 in 7.0 mi Calm Calm - N/A   Overcast
4:53 AM 68.0 °F - 64.9 °F 90% 29.99 in 7.0 mi Calm Calm - 0.00 in   Mostly Cloudy
5:53 AM 68.0 °F - 64.9 °F 90% 30.00 in 7.0 mi Calm Calm - 0.00 in   Overcast
6:53 AM 68.0 °F - 64.9 °F 90% 30.01 in 5.0 mi Calm Calm - N/A   Mostly Cloudy
7:53 AM 69.1 °F - 64.9 °F 87% 30.01 in 8.0 mi Calm Calm - N/A   Partly Cloudy
8:53 AM 73.0 °F - 66.9 °F 81% 30.01 in 10.0 mi South 5.8 mph - N/A   Clear
9:53 AM 75.9 °F - 68.0 °F 76% 30.01 in 10.0 mi South 6.9 mph - N/A   Mostly Cloudy
10:53 AM 81.0 °F 84.4 °F 70.0 °F 69% 30.00 in 10.0 mi South 10.4 mph 16.1 mph N/A   Scattered Clouds
11:04 AM 80.6 °F 83.9 °F 69.8 °F 70% 30.01 in 10.0 mi SSW 9.2 mph - N/A   Mostly Cloudy
11:53 AM 82.0 °F 85.9 °F 70.0 °F 67% 30.00 in 10.0 mi SSW 6.9 mph - N/A   Overcast
12:07 PM 84.2 °F 88.4 °F 69.8 °F 62% 30.01 in 10.0 mi South 8.1 mph - N/A   Mostly Cloudy
12:37 PM 80.6 °F 83.9 °F 69.8 °F 70% 30.00 in 5.0 mi SSW 9.2 mph - 0.00 in Rain , Thunderstorm Light Thunderstorms and Rain
12:46 PM 75.2 °F - 71.6 °F 89% 30.01 in 2.5 mi SSW 11.5 mph 18.4 mph 0.06 in Rain Light Rain
12:53 PM 75.9 °F - 70.0 °F 82% 29.99 in 5.0 mi South 6.9 mph - 0.07 in Rain Light Rain
1:03 PM 75.2 °F - 69.8 °F 83% 29.99 in 9.0 mi SE 6.9 mph - 0.00 in Rain Light Rain
1:11 PM 78.8 °F - 71.6 °F 78% 29.98 in 10.0 mi Variable 5.8 mph - 0.00 in   Mostly Cloudy
1:35 PM 78.8 °F - 71.6 °F 78% 29.98 in 10.0 mi SSE 5.8 mph - 0.00 in Thunderstorm Partly Cloudy
1:46 PM 78.8 °F - 71.6 °F 78% 29.98 in 10.0 mi SE 9.2 mph - 0.00 in   Mostly Cloudy
1:53 PM 77.0 °F - 70.0 °F 79% 29.96 in 10.0 mi SE 8.1 mph - 0.00 in   Mostly Cloudy
2:07 PM 77.0 °F - 68.0 °F 74% 29.96 in 10.0 mi SE 8.1 mph - N/A   Scattered Clouds
2:25 PM 75.2 °F - 69.8 °F 83% 29.96 in 8.0 mi SSE 9.2 mph - 0.00 in Rain , Thunderstorm Light Thunderstorms and Rain
2:53 PM 78.1 °F - 70.0 °F 76% 29.95 in 10.0 mi SSE 10.4 mph - 0.00 in Thunderstorm Scattered Clouds
3:22 PM 80.6 °F 83.9 °F 69.8 °F 70% 29.94 in 10.0 mi SSE 9.2 mph - 0.00 in   Partly Cloudy
3:53 PM 82.9 °F 87.0 °F 70.0 °F 65% 29.92 in 10.0 mi South 5.8 mph - 0.00 in Thunderstorm Clear
4:15 PM 77.0 °F - 69.8 °F 78% 29.94 in 7.0 mi South 11.5 mph - 0.00 in Rain , Thunderstorm Light Thunderstorms and Rain
4:25 PM 75.2 °F - 69.8 °F 83% 29.94 in 1.8 mi SW 4.6 mph - 0.04 in Rain , Thunderstorm Heavy Thunderstorms and Rain
4:30 PM 75.2 °F - 71.6 °F 89% 29.94 in 2.5 mi WSW 3.5 mph - 0.06 in Rain Light Rain
4:37 PM 77.0 °F - 69.8 °F 78% 29.94 in 10.0 mi Calm Calm - 0.06 in Rain Light Rain
4:53 PM 78.1 °F - 70.0 °F 76% 29.93 in 10.0 mi SW 3.5 mph - 0.06 in   Mostly Cloudy
5:53 PM 77.0 °F - 73.0 °F 88% 29.92 in 6.0 mi Calm Calm - N/A   Mostly Cloudy
6:29 PM 75.2 °F - 71.6 °F 89% 29.93 in 7.0 mi Calm Calm - N/A Thunderstorm Mostly Cloudy
6:53 PM 75.9 °F - 72.0 °F 87% 29.92 in 5.0 mi ESE 3.5 mph - 0.02 in Rain , Thunderstorm Light Thunderstorms and Rain
7:00 PM 75.2 °F - 71.6 °F 89% 29.95 in 1.5 mi SSW 13.8 mph 24.2 mph 0.02 in Rain , Thunderstorm Heavy Thunderstorms and Rain
7:07 PM 73.4 °F - 71.6 °F 94% 29.95 in 0.5 mi SW 3.5 mph - 0.39 in Fog , Rain , Thunderstorm Heavy Rain
7:18 PM 73.4 °F - 69.8 °F 88% 29.95 in 1.0 mi Calm Calm - 0.72 in Rain Heavy Rain
7:27 PM 73.4 °F - 69.8 °F 88% 29.94 in 3.0 mi Calm Calm - 0.77 in Rain Light Rain
7:36 PM 73.4 °F - 69.8 °F 88% 29.94 in 5.0 mi Calm Calm - 0.79 in Rain Light Rain
7:53 PM 73.9 °F - 70.0 °F 87% 29.94 in 10.0 mi Calm Calm - 0.80 in   Overcast
8:53 PM 73.0 °F - 70.0 °F 90% 29.95 in 7.0 mi Calm Calm - N/A   Mostly Cloudy
9:53 PM 73.0 °F - 70.0 °F 90% 29.95 in 7.0 mi Calm Calm - N/A   Overcast
11:53 PM 72.0 °F - 68.0 °F 87% 29.95 in 10.0 mi SSE 3.5 mph - N/A   Clear